Location: Holyhead Bay
(53.3667°N, 4.6667°W)
Time: 18:19:42
(UTC+00:00)

Cosmos 2218 Rocket - Pass Details

Date: 24 November 2020
Orbit: 956 x 1006 km, 82.9° (Epoch: 16 January)

Event Time Altitude Azimuth Distance (km) Brightness Sun altitude
Rises 18:33:03 0° 348° (NNW) 3,662 7.1 -20.5°
Reaches altitude 10° 18:35:34 10° 349° (NNW) 2,707 6.4 -20.9°
Maximum altitude 18:41:46 86° 262° (W) 968 3.9 -21.8°
Drops below altitude 10° 18:47:54 10° 174° (S) 2,683 6.3 -22.8°
Sets 18:50:23 0° 174° (S) 3,627 7.0 -23.1°
